User: anonymous   Login
Location: Unspecified
(0.0000°N, 0.0000°E)
Time: 23:41:04
(UTC+00:00)
Language:

OPTUS D3 - Orbit

View from above orbital plane
View from above orbital plane
View from above satellite
View from above satellite

Ground track
Ground track

The orbit data is extracted from the following two-line orbital elements,

1 35756U 09044B   18022.62841139 -.00000143  00000-0  00000+0 0  9998
2 35756   0.0376 334.6025 0003918 339.1888 190.3660  1.00272027 30872
Epoch (UTC): 22 January 2018 15:04:54
Eccentricity: 0.0003918
inclination: 0.0376°
perigee height: 35769 km
apogee height: 35802 km
right ascension of ascending node: 334.6025°
argument of perigee: 339.1888°
revolutions per day: 1.00272027
mean anomaly at epoch: 190.3660°
orbit number at epoch: 3087

The dashed part of the orbit path shows where the satellite is in the earth's shadow,  

DLR